www.pogodaiklimat.ru

Погода и климат >> Архив погоды >> Непал >> Сиддхартханагар


ПОГОДА в Сиддхартханагаре

  • Прогноз погоды в Сиддхартханагаре
  • Монитор погоды в Сиддхартханагаре

АРХИВ ПОГОДЫ в Сиддхартханагаре

Время (UTC), дата Ветер
(напр.,м/с)
 
Видим.   Явления Облачность Т
(С)
Тd
(С)
f
(%)
Тe
(С)
Тes
(С)
Комфортность P
(гПа)
Po
(гПа)
Тmin
(С)
Tmax
(С)
R
(мм)
R24
(мм)
S
(см)
00 17.09 В 2 5000 м слаб. дождь 10/5 600 м
[Cu Sc Ac As]
+26.1 +24.7 92 +37 +37 очень
душно
1004.5 992.2
03 17.09 В 3 4000 м морось {гроза, дождь} 10/5 300 м
[Cb cap As op]
+24.6 +24.6 100 +34 +35 очень
душно
1006.8 994.5 +24.0 25
09 17.09 штиль 0 7000 м {гроза, дождь} 9/5 600 м
[Cu Sc Ac As]
+26.6 +25.2 92 +38 +42 очень
душно
1005.3 992.8
12 17.09 В 3 7000 м 9/5 600 м
[Sc diur, vesp Ac trans Ci sp]
+26.8 +25.4 92 +39 +39 очень
душно
1005.2 992.8 +28.5 19
00 18.09 В 3 6000 м 10/5 600 м
[Cu Sc Ac As]
+25.4 +23.6 90 +35 +35 очень
душно
1008.6 996.2
03 18.09 В 7 6000 м 9/5 600 м
[Cu Sc Ac As]
+26.0 +24.4 91 +36 +37 очень
душно
1010.8 998.3 +25.0 20
06 18.09 В 3 5000 м слаб. морось 10/5 600 м
[Cu Sc Ac As]
+25.2 +25.0 99 +36 +38 очень
душно
1011.9 999.4
09 18.09 В 3 7000 м {дождь, морось} 10/5 300 м
[Cu Sc Ac As]
+26.4 +24.4 89 +37 +39 очень
душно
1010.8 998.3
12 18.09 СВ 4 6000 м 10/5 300 м
[Cb cap Ac As]
+24.4 +22.9 91 +32 +32 очень
душно
1010.6 998.1 +27.2 6
00 19.09 штиль 0 10 км 10/5 600 м
[Cu Sc Ac As]
+25.2 +20.6 76 +31 +31 очень
душно
1010.8 998.3
03 19.09 штиль 0 10 км 10/5 600 м
[Cu Sc Ac As]
+25.6 +23.5 88 +35 +36 очень
душно
1012.4 999.8 +24.0 7
06 19.09 ЮВ 1 10 км 9/5 600 м
[Cu Sc Ac As]
+29.9 +24.3 72 +42 +46 опасность
перегрева
1012.1 999.5
09 19.09 Ю 1 10 км 9/5 600 м
[Cu Sc Ac As]
+31.0 +24.2 67 +43 +46 опасность
перегрева
1009.3 997.0
12 19.09 З 2 <100 м 8/4 1000 м
[Sc diur, vesp Ac trans]
+29.6 +25.4 78 +43 +43 опасность
перегрева
1008.7 996.4 +31.8 0.0
09 20.09 Ю 2 10 км 8/5 600 м
[Cu Sc Ac trans]
+31.6 +24.6 66 +44 +47 опасность
перегрева
1007.4 995.1
12 20.09 З 3 <100 м 5/1 1000 м
[Cu hum Ac trans]
+30.7 +25.7 75 +46 +46 опасность
перегрева
1005.7 993.4 +33.8
00 21.09 В 1 7000 м 8/4 600 м
[Cu Sc Ac cast]
+24.9 +24.1 95 +34 +34 очень
душно
1007.9 995.6
03 21.09 штиль 0 5000 м дымка {туман} 5/1 600 м
[Cu hum Ac und]
+28.6 +25.7 84 +42 +48 опасность
перегрева
1010.1 997.7 +24.7
06 21.09 З 2 7000 м 5/4 600 м
[Cu med, cong Ac und]
+33.4 +25.8 65 +49 +59 опасность
перегрева
1009.2 996.8
09 21.09 З 3 7000 м 5/3 600 м
[Cu med, cong Ac und]
+33.8 +24.5 58 +46 +51 опасность
перегрева
1004.9 992.6
12 21.09 З 2 7000 м 8/3 600 м
[Cu med, cong Cs]
+30.6 +25.8 76 +46 +46 опасность
перегрева
1005.1 992.8 +34.2
00 22.09 В 2 10 км 9/5 600 м
[Cu Sc Ac As]
+24.2 +22.4 90 +32 +32 очень
душно
1010.1 997.7
03 22.09 ЮВ 3 7000 м 9/5 600 м
[Cb cap Ac As]
+25.2 +22.9 87 +33 +35 очень
душно
1011.5 999.1 +23.8 0.8
06 22.09 С 3 7000 м слаб. морось 10/5 600 м
[Cu Sc Ac As]
+26.5 +24.5 89 +37 +39 очень
душно
1012.0 999.6
09 22.09 СЗ 2 7000 м 9/5 600 м
[Cu Sc Ac As]
+27.8 +25.0 85 +40 +43 очень
душно
1010.3 997.7
00 23.09 штиль 0 3000 м дымка 9/5 600 м
[Cu Sc Ac As]
+25.7 +24.9 95 +36 +36 очень
душно
1011.4 999.1
03 23.09 В 1 5000 м дымка {туман} 9/5 600 м
[Cu Sc Ac As]
+27.4 +25.7 90 +40 +42 очень
душно
1012.1 999.7 +25.5 0.2
06 23.09 ЮВ 3 7000 м 8/5 600 м
[Cu Sc Ac trans]
+32.4 +25.9 69 +48 +52 опасность
перегрева
1011.9 999.5
09 23.09 В 3 7000 м 5/3 600 м
[Cu hum Ac trans]
+31.2 +23.7 64 +42 +48 опасность
перегрева
1009.4 997.0
12 23.09 штиль 0 7000 м 5/3 600 м
[Cu med, cong Ac trans Ci fib]
+30.8 +25.2 72 +45 +45 опасность
перегрева
1008.2 995.8 +33.0

 

Местоположение метеостанции Сиддхартханагар (Непал): широта 27.52 долгота 83.45 высота над уровнем моря 109 м.

В архиве по умолчанию представлена погода в Сиддхартханагаре за последнюю неделю. Архивные данные за месяц целиком и за предыдущие месяцы, начиная с января 2011 года, Вы можете получить, выбрав интересующий диапазон дат из раскрывающегося списка и нажав кнопку "Ввод!".


*Определитесь, кто Вы:
робот инопланетянин человек

Внимание! Время в таблицах - всемирное. Для получения местного времени необходимо прибавить поправку, которая равна 5.5 ч.

Смотрите также архив погоды в соседних городах и на ближайших метеорологических станциях:

Погода в Горакпуре (Уттар-Прадеш, Индия) (86 км)
Погода в Покхаре (Непал) (92 км)
Погода в Гхорахи (Непал) (111 км)
Погода в Симаре (Непал) (156 км)
Погода в Бахрайче (Уттар-Прадеш, Индия) (183 км)
Погода в Непалгандже (Непал) (187 км)
Погода в Катманду (Непал) (190 км)
Погода в Султанпуре (Уттар-Прадеш, Индия) (195 км)
Погода в Суркхете (Непал) (216 км)
Погода в Чхапре (Бихар, Индия) (232 км)

Пояснения к столбцам:

Ветер - указаны скорость ветра в м/с - средняя за 10 мин, порывы в срок и между сроками (в фигурных скобках) и направление, откуда дует ветер: С - северный, СВ - северо-восточный, В - восточный, ЮВ - юго-восточный, Ю - южный, ЮЗ - юго-западный, З - западный, СЗ - северо-западный.
Видимость - горизонтальная дальность видимости в метрах или километрах. При видимости от 1 до 10 км при отсутствии осадков обычно наблюдается дымка, при ухудшении видимости до 1 км и менее - туман. В сухую погоду видимость может ухудшаться дымом, пылью или мглою.
Явления - указаны атмосферные явления, наблюдавшиеся в срок или в последний час перед сроком; фигурными скобками обозначены явления, наблюдавшиеся между сроками (за 1-3 часа до срока); квадратными скобками обозначены град или гололедные отложения с указанием их диаметра в мм.
Облачность - указаны через наклонную черту общая и нижняя облачность в баллах и высота нижней границы облаков в метрах; квадратными скобками обозначены формы облаков: Ci - перистые, Cs - перисто-слоистые, Cc - перисто-кучевые, Ac - высококучевые, As - высокослоистые, Sc - слоисто-кучевые, Ns - слоисто-дождевые, Cu - кучевые, Cb - кучево-дождевые. Подробнее классификацию облаков см. в Атласе облаков (PDF).
T - Температура воздуха - температура, измеренная на высоте 2 м над землей.
Td - Температура точки росы - температура, при понижении до которой содержащийся в воздухе водяной пар достигнет насыщения.
f - Относительная влажность воздуха - влажноcть воздуха, измеренная на высоте 2 м над землей.
Te - Эффективная температура - температура, которую ощущает одетый по сезону человек в тени. Характеристика душности погоды. При расчете учитывается влияние влажности воздуха и скорости ветра на теплоощущения человека.
Tes - Эффективная температура на солнце - температура, которую ощущает человек, с поправкой на солнечный нагрев. Характеристика знойности погоды. Зависит от высоты солнца над горизонтом, облачности и скорости ветра. Ночью, в пасмурную погоду, а также при ветре 12 м/с и более поправка равна нулю.
P - Атмосферное давление - приведенное к уровню моря атмосферное давление.
Po - Атмосферное давление - измеренное на уровне метеостанции атмосферное давление.
Tmin - Минимальная температура - минимум температуры воздуха на высоте 2 м над землей.
Tmax - Максимальная температура - максимум температуры воздуха на высоте 2 м над землей.
R - Количество осадков - Количество выпавших осадков за период времени, мм. При наведении курсора мыши на число - период времени, за который выпало указанное количество осадков.
R24 - Количество осадков - Количество выпавших осадков за 24 часа, мм.
S - Снежный покров - Высота снежного покрова, см. При наведении курсора мыши на число - состояние снежного покрова и степень покрытия местности в баллах.